Terminal Aerodrome Forecast
Issued by NWS Sterling, VA

Current Version | Previous Version | Text Only | Print | Product List | Glossary Off
Versions: 1 2 3 4 5 6 7 8 9 10 11 12 13 14 15 16 17 18 19 20 21 22 23 24 25 26 27 28 29

000
FTUS41 KLWX 011438 AAA
TAFIAD
TAF AMD
KIAD 011438Z 0115/0218 28006KT P6SM FEW070 SCT150=

USA.gov is the U.S. government's official web portal to all federal, state and local government web resources and services.